User: anonymous   Login
Location: B
(0.0000°N, 0.0000°E)
Time: 20:25:32
(UTC+01:00)
Language:

Cosmos 1025 Rocket - Orbit

View from above orbital plane
View from above orbital plane
View from above satellite
View from above satellite

Ground track
Ground track

The orbit data is extracted from the following two-line orbital elements,

1 10974U 78067B   16043.73927559  .00000263  00000-0  26499-4 0  9995
2 10974  82.4811 273.6506 0017831 163.7444 196.4349 14.87118576 34668
Epoch (UTC): 12 February 2016 17:44:33
Eccentricity: 0.0017831
inclination: 82.4811°
perigee height: 594 km
apogee height: 619 km
right ascension of ascending node: 273.6506°
argument of perigee: 163.7444°
revolutions per day: 14.87118576
mean anomaly at epoch: 196.4349°
orbit number at epoch: 3466

The dashed part of the orbit path shows where the satellite is in the earth's shadow,  

DLR